TimeEST,TemperatureF,Dew PointF,Humidity,Sea Level PressureIn,VisibilityMPH,Wind Direction,Wind SpeedMPH,Gust SpeedMPH,PrecipitationIn,Events,Conditions,WindDirDegrees,DateUTC
12:51 AM,42.1,28.0,58,29.93,10.0,SW,15.0,-,N/A,,Partly Cloudy,220,2013-01-20 05:51:00
1:51 AM,42.1,28.9,60,29.90,10.0,SW,16.1,-,N/A,,Partly Cloudy,220,2013-01-20 06:51:00
2:51 AM,41.0,28.9,62,29.88,10.0,SW,15.0,-,N/A,,Partly Cloudy,220,2013-01-20 07:51:00
3:51 AM,39.0,28.9,67,29.86,10.0,SW,11.5,-,N/A,,Clear,220,2013-01-20 08:51:00
4:51 AM,39.0,30.0,70,29.82,10.0,SW,10.4,-,N/A,,Clear,220,2013-01-20 09:51:00
5:51 AM,39.9,30.0,68,29.79,10.0,SSW,12.7,-,N/A,,Clear,210,2013-01-20 10:51:00
6:51 AM,41.0,28.9,62,29.78,10.0,SW,16.1,-,N/A,,Partly Cloudy,220,2013-01-20 11:51:00
7:51 AM,42.1,28.9,60,29.77,10.0,SW,18.4,-,N/A,,Partly Cloudy,220,2013-01-20 12:51:00
8:51 AM,45.0,28.9,53,29.78,10.0,SW,17.3,-,N/A,,Partly Cloudy,220,2013-01-20 13:51:00
9:51 AM,46.9,28.9,50,29.79,10.0,SW,15.0,-,N/A,,Partly Cloudy,230,2013-01-20 14:51:00
10:51 AM,51.1,30.9,46,29.77,10.0,WSW,18.4,-,N/A,,Mostly Cloudy,240,2013-01-20 15:51:00
11:51 AM,52.0,30.0,43,29.73,10.0,SW,25.3,29.9,N/A,,Mostly Cloudy,230,2013-01-20 16:51:00
12:51 PM,55.0,27.0,34,29.71,10.0,West,26.5,35.7,N/A,,Mostly Cloudy,260,2013-01-20 17:51:00
1:51 PM,53.1,19.9,27,29.72,10.0,West,28.8,36.8,N/A,,Mostly Cloudy,270,2013-01-20 18:51:00
2:51 PM,54.0,18.0,24,29.74,10.0,West,20.7,29.9,N/A,,Mostly Cloudy,270,2013-01-20 19:51:00
3:51 PM,52.0,14.0,22,29.78,10.0,West,20.7,32.2,N/A,,Mostly Cloudy,280,2013-01-20 20:51:00
4:51 PM,48.9,8.1,19,29.82,10.0,West,28.8,42.6,N/A,,Scattered Clouds,280,2013-01-20 21:51:00
5:51 PM,46.0,6.1,20,29.87,10.0,West,18.4,33.4,N/A,,Partly Cloudy,280,2013-01-20 22:51:00
6:51 PM,44.1,10.0,25,29.91,10.0,WNW,19.6,31.1,N/A,,Partly Cloudy,290,2013-01-20 23:51:00
7:51 PM,41.0,15.1,35,29.95,10.0,NW,15.0,-,N/A,,Clear,310,2013-01-21 00:51:00
8:51 PM,37.0,12.0,36,29.98,10.0,WNW,15.0,-,N/A,,Clear,300,2013-01-21 01:51:00
9:51 PM,35.1,10.0,35,30.00,10.0,NW,20.7,26.5,N/A,,Clear,320,2013-01-21 02:51:00
10:51 PM,33.1,10.0,38,30.03,10.0,NW,17.3,29.9,N/A,,Clear,320,2013-01-21 03:51:00
11:51 PM,30.9,9.0,40,30.06,10.0,NW,15.0,-,N/A,,Partly Cloudy,310,2013-01-21 04:51:00